Theta_e
343 343 342 338 348 352 354 356 350 350 349 345 346 350 351 348 351 355 342 341 339 339 340 342 338 340 340 339 336 339 339 339 338 338 339 339 338 338 338 339 341 341 341 343 343 343 343 343 341
341 342 340 343 351 357 352 352 352 349 347 346 345 346 347 349 343 342 340 339 338 337 340 338 340 338 336 335 335 338 336 336 336 337 338 338 338 338 338 338 339 339 339 339 340 341 340 340 339
340 343 337 344 353 355 353 348 348 348 346 345 348 345 347 348 343 342 340 337 337 338 339 340 337 333 328 327 329 327 327 331 332 332 331 330 332 329 331 333 335 336 338 337 337 338 338 338 337
338 340 339 346 353 352 348 344 346 347 346 344 345 349 344 344 343 341 339 338 338 339 338 335 328 326 324 322 323 324 327 330 331 330 328 324 323 319 321 322 322 325 327 330 333 333 332 335 337
340 340 347 350 352 348 346 344 344 349 347 346 345 347 346 343 341 339 338 338 337 336 330 323 320 320 319 317 317 317 320 322 326 325 322 320 316 319 318 318 317 316 315 314 317 320 326 329 329
338 339 348 352 352 345 344 342 347 347 345 345 345 345 344 342 339 339 339 337 334 325 321 322 323 322 321 320 319 318 317 316 316 315 315 316 317 321 321 318 318 316 316 313 313 313 314 315 320
341 343 345 349 351 346 341 341 346 347 346 346 342 346 343 342 340 339 337 334 326 321 325 325 325 324 323 321 320 320 320 319 319 319 317 316 319 322 322 320 319 317 317 316 315 315 314 315 319
341 343 348 347 348 347 340 344 346 348 349 341 340 347 345 341 340 339 335 331 326 324 327 327 326 325 325 323 320 321 321 321 320 320 321 320 322 323 324 323 320 319 318 319 319 319 319 319 319
336 342 347 345 343 344 340 347 346 344 346 345 343 341 340 341 339 334 330 329 328 327 325 321 320 320 323 324 321 325 321 322 320 320 320 320 319 319 320 320 322 323 320 323 322 324 325 324 320
339 343 346 341 336 340 342 346 345 348 347 344 341 337 337 340 333 324 321 321 322 321 320 320 319 319 319 320 319 321 322 322 320 320 319 318 318 319 319 318 318 318 318 318 319 318 319 320 318
340 346 344 342 337 341 341 345 345 348 349 343 340 331 326 327 325 325 323 321 322 322 320 320 318 318 318 318 318 319 321 322 321 320 319 319 318 317 318 318 317 318 318 318 317 317 318 318 317
345 340 340 341 343 343 345 345 349 347 347 340 335 327 325 326 326 325 325 322 321 321 321 321 318 317 317 318 318 319 319 319 319 320 320 319 318 317 317 317 317 318 318 317 317 316 317 317 318
343 341 340 340 340 343 344 348 348 347 342 338 329 327 324 326 326 326 326 322 322 321 322 321 319 319 319 319 319 319 319 318 318 319 320 319 318 316 316 317 317 317 319 317 316 316 317 317 319
336 339 338 335 335 344 348 347 347 345 340 337 330 328 326 326 326 326 326 324 321 322 321 323 323 323 322 321 320 320 320 319 318 319 320 319 318 318 316 315 316 317 318 315 315 316 317 318 318
338 338 336 337 336 343 344 348 351 342 338 335 331 328 326 327 327 326 326 324 321 321 321 323 324 324 323 323 321 321 320 320 319 319 319 319 318 318 317 315 315 316 317 316 315 317 318 317 316
339 338 341 339 339 339 343 352 347 341 338 335 332 331 329 327 327 326 326 324 319 321 321 322 326 328 324 324 323 321 322 322 322 320 319 318 318 318 317 317 317 315 315 316 315 315 317 316 315
339 340 345 345 339 341 345 351 347 341 339 337 333 332 331 328 327 327 325 324 322 319 320 321 325 328 325 324 325 323 323 324 318 321 320 319 318 318 317 317 316 315 315 316 316 316 317 316 316
342 344 345 344 338 340 345 348 347 343 341 338 336 334 333 330 328 327 326 327 327 323 320 321 323 328 326 325 326 324 324 321 318 318 319 319 318 318 316 316 317 316 315 316 315 316 316 317 318
338 340 343 344 339 341 341 348 345 344 341 340 337 336 334 332 331 330 329 329 327 323 322 325 325 327 329 326 323 323 322 320 321 318 319 318 318 317 316 317 318 316 316 316 314 316 317 317 317
337 342 342 341 342 341 346 349 344 343 342 341 339 337 335 334 332 330 330 328 327 328 328 327 327 327 328 327 325 323 321 320 321 322 320 319 319 318 318 317 318 318 317 315 314 316 317 316 318
336 335 333 333 341 345 348 348 344 339 340 341 340 339 335 334 332 330 329 329 329 330 330 328 329 329 329 327 326 323 323 322 321 323 321 320 319 319 319 319 319 319 317 316 315 317 317 318 318
333 334 331 332 333 336 344 348 345 343 342 340 339 339 335 332 330 329 331 331 331 332 331 329 329 327 329 326 325 324 323 318 319 323 321 320 318 319 319 319 319 319 318 317 316 317 317 318 318
334 333 332 331 330 331 342 343 344 338 341 339 332 332 328 327 327 327 329 330 331 330 325 326 326 326 327 325 326 324 323 319 320 322 320 319 319 319 318 318 317 317 318 316 315 317 317 318 318
333 335 332 329 324 326 340 341 340 339 341 334 327 329 325 325 327 328 328 327 328 327 326 326 325 324 323 323 322 322 321 319 320 320 321 319 318 317 317 317 318 317 316 316 316 316 316 317 317
333 328 330 329 327 330 340 341 338 337 334 331 328 324 322 322 324 321 324 329 328 324 324 323 322 322 320 320 321 322 321 319 319 319 320 320 317 318 318 316 315 315 314 314 316 317 316 317 316
334 326 326 330 329 328 338 343 338 336 332 331 327 323 321 321 320 321 320 320 318 319 320 319 320 318 318 320 321 319 316 316 316 316 317 318 318 318 318 317 316 316 315 315 314 316 316 315 316
334 330 323 324 326 324 338 337 334 334 333 329 323 322 321 320 318 316 316 318 315 314 315 314 313 313 316 318 316 315 315 315 314 313 316 318 318 318 317 317 315 316 316 315 315 315 316 315 315
333 328 327 325 333 331 342 340 336 336 334 325 324 323 321 315 310 309 311 313 313 314 315 314 313 315 315 313 315 314 315 315 313 313 312 314 316 317 316 316 315 316 315 315 316 315 316 314 315
325 324 325 323 325 331 333 334 330 331 326 324 322 320 319 311 308 308 310 313 314 314 313 314 314 313 312 312 312 312 314 312 313 314 315 314 314 316 317 316 315 314 315 315 316 316 315 315 316
327 327 324 325 326 325 327 333 325 323 322 323 322 322 320 312 308 308 311 313 312 312 312 313 312 312 312 312 311 311 313 313 313 314 314 314 315 316 317 316 314 315 315 315 315 316 315 316 316
Wind_Speed
14 7 1 10 5 5 2 5 2 8 4 5 11 10 11 7 3 3 10 15 19 17 13 11 11 9 10 9 10 11 11 12 11 10 10 10 9 9 8 7 8 8 6 6 5 4 2 2 1
15 9 10 2 5 3 1 5 7 8 13 15 13 10 10 4 4 10 11 17 18 15 14 11 9 9 9 9 10 10 11 10 10 10 9 9 8 8 7 7 8 7 6 6 5 5 4 2 1
14 3 4 4 3 4 4 7 12 17 17 6 7 8 3 3 8 8 12 19 18 16 14 12 9 8 8 8 8 8 8 8 8 8 7 8 8 7 7 7 7 7 7 4 6 7 5 5 5
5 6 4 4 5 3 3 5 15 10 8 10 12 8 4 4 8 14 22 21 19 16 14 11 9 8 7 6 6 5 5 5 5 5 5 5 6 7 6 6 6 6 7 6 6 6 6 6 6
7 4 4 4 2 3 3 9 5 7 6 6 3 4 3 3 18 25 24 21 19 16 12 11 9 7 6 6 5 4 1 1 2 2 2 3 5 5 5 8 8 11 14 11 10 9 9 9 9
4 3 5 3 3 3 3 9 8 7 11 12 10 6 2 13 26 25 21 18 16 17 14 11 8 6 4 5 6 5 4 2 1 2 3 2 3 3 3 7 9 14 15 12 11 12 12 12 12
5 3 2 2 6 3 9 8 8 10 9 5 13 5 5 13 22 24 21 16 17 17 13 10 6 3 2 3 5 6 7 7 7 6 5 5 5 5 5 6 7 11 14 12 10 9 10 11 14
5 3 1 2 5 5 3 6 12 9 6 10 13 7 7 20 27 22 20 18 16 15 10 7 3 1 4 2 1 1 2 5 5 5 5 8 5 5 6 8 12 10 12 12 11 12 12 11 11
2 3 3 4 6 6 5 5 4 6 8 4 1 6 12 30 24 22 21 17 15 15 11 10 10 6 5 4 4 5 3 0 2 4 3 4 6 7 4 6 9 10 11 13 12 15 13 11 10
3 1 5 5 4 7 8 6 9 5 5 5 9 15 17 24 25 24 23 22 21 20 15 13 11 12 10 2 5 2 7 5 2 3 2 3 5 5 5 7 7 6 9 10 6 9 10 6 9
2 5 4 10 5 10 7 9 3 12 4 5 18 10 14 22 22 22 19 20 20 17 14 10 8 5 4 2 6 8 1 9 6 3 2 2 5 8 6 7 6 7 11 7 10 11 11 12 13
1 6 4 11 9 9 5 5 5 3 6 13 12 16 11 13 14 19 19 17 18 18 14 10 6 6 6 3 2 4 1 3 4 7 7 4 6 7 6 7 7 13 10 6 11 14 8 9 13
6 4 3 6 6 8 13 9 8 10 14 13 18 13 8 10 10 11 14 14 16 15 13 9 4 3 3 5 1 2 2 6 7 5 6 9 6 7 8 6 7 14 7 9 12 13 15 17 16
6 5 8 4 5 9 14 9 5 4 12 12 15 12 9 12 15 13 13 15 14 11 10 7 5 4 4 4 5 4 5 7 10 8 12 10 8 6 8 7 9 10 8 12 16 14 16 9 11
5 5 3 1 4 4 12 1 5 16 13 12 9 7 8 13 14 16 16 16 17 15 13 11 10 10 9 6 6 5 7 9 12 9 7 10 7 5 6 5 9 10 12 16 15 10 11 15 18
4 6 3 7 6 3 6 4 13 13 14 10 9 6 6 5 13 16 19 21 21 19 18 15 11 10 17 12 9 7 10 14 16 13 11 9 9 10 9 10 9 15 12 14 15 16 12 18 21
6 4 5 8 5 6 3 5 14 11 10 12 11 11 9 7 14 22 23 24 22 22 21 17 17 15 17 16 13 12 12 15 10 15 17 14 10 10 9 9 10 12 14 16 13 12 15 16 19
5 4 3 6 5 10 6 3 15 11 8 12 10 10 10 10 15 25 27 26 24 25 25 23 19 18 14 18 17 17 16 10 9 8 13 14 11 8 10 10 12 11 12 11 14 15 13 14 16
7 5 7 6 8 2 7 9 14 17 14 10 9 10 10 11 21 17 23 26 24 24 27 25 22 24 24 23 18 20 22 16 12 13 11 12 11 10 11 12 12 13 13 11 12 12 13 15 16
8 3 6 9 3 5 8 9 3 8 4 3 7 11 12 12 9 15 21 20 23 24 24 22 25 26 25 22 22 21 21 14 15 16 15 16 14 14 13 14 14 12 14 13 11 11 10 13 13
3 6 4 7 9 10 14 6 2 2 6 6 7 12 8 14 9 7 14 22 23 23 22 23 24 25 23 21 22 21 24 20 20 20 17 16 17 16 16 16 17 15 13 13 12 11 12 12 13
3 3 2 6 4 4 9 4 2 3 5 6 8 10 7 6 5 5 13 19 22 21 19 18 18 17 20 18 19 23 24 21 23 20 21 15 13 12 15 18 17 15 13 14 13 12 13 11 13
7 6 2 3 3 3 3 5 3 3 6 7 3 4 6 6 8 7 13 7 7 4 4 6 9 12 15 15 19 23 24 21 23 22 14 10 14 17 17 14 13 13 13 14 14 13 13 13 12
5 1 7 6 4 3 4 5 4 5 6 4 3 8 8 5 6 4 2 2 5 3 3 1 2 5 9 12 13 17 20 25 26 27 27 21 18 20 17 15 16 14 13 13 13 13 12 11 12
8 6 4 5 5 5 3 3 4 6 8 6 8 6 6 7 8 6 8 11 10 7 6 6 7 5 3 6 10 12 15 18 20 24 31 28 22 24 20 17 14 13 10 12 13 14 11 9 13
2 6 5 3 3 3 4 2 4 5 7 4 4 8 8 8 8 7 10 11 9 12 14 12 9 4 3 4 6 6 7 11 16 22 23 24 24 25 19 16 14 13 14 14 12 14 12 12 13
4 2 5 4 0 2 3 1 3 4 7 3 10 6 7 7 5 5 10 12 11 9 9 9 6 2 3 5 1 5 8 11 16 16 20 26 26 21 19 17 15 15 13 10 12 14 14 12 13
4 2 2 3 2 4 2 2 4 7 9 9 8 6 5 5 7 5 7 9 7 10 13 9 7 9 8 3 2 4 9 12 16 18 15 19 24 26 24 22 16 16 16 14 13 14 14 13 13
4 2 5 4 4 3 1 4 5 9 7 11 8 7 6 7 7 7 9 13 13 16 14 11 12 9 4 2 2 5 6 10 14 18 19 22 25 25 24 20 17 17 16 15 16 14 14 12 12
2 3 4 4 5 1 4 5 5 8 8 8 7 6 3 7 8 7 9 11 12 9 9 9 7 2 2 3 7 12 10 14 15 17 20 25 27 22 24 21 17 18 15 15 14 12 11 11 9
Wind_Direction
121 103 64 48 58 57 144 282 314 134 69 51 67 95 92 35 26 178 155 179 163 157 148 135 127 114 103 93 78 79 76 74 70 68 71 73 75 73 71 71 68 61 52 49 49 31 41 75 71
141 119 51 74 85 80 267 253 134 115 120 107 85 71 52 60 50 130 131 157 158 151 147 134 127 115 100 93 89 86 82 75 73 70 68 71 67 64 65 61 58 56 46 28 20 8 352 344 303
156 147 78 84 116 172 190 189 124 129 151 112 111 53 61 96 118 147 159 155 150 144 138 135 129 116 105 97 93 85 79 77 73 71 62 59 58 52 46 46 42 37 37 26 4 349 337 322 316
144 41 37 95 179 233 187 104 124 123 87 57 108 80 75 30 144 153 152 150 147 144 143 137 127 115 103 91 82 79 88 85 81 68 49 40 30 17 13 14 9 4 359 354 342 327 306 312 302
55 64 57 61 291 258 248 119 130 99 105 106 105 102 64 27 148 147 152 154 151 148 141 130 122 112 98 83 54 31 39 79 91 15 0 4 12 13 12 13 359 3 345 325 309 305 301 295 291
50 94 43 2 268 194 71 135 99 87 104 110 101 98 72 141 143 154 153 160 153 141 138 133 127 113 102 79 51 40 29 5 344 353 329 326 340 351 347 10 9 3 357 340 311 302 296 293 291
104 82 196 267 255 106 121 136 124 141 154 122 140 98 140 168 162 157 163 157 151 145 143 141 142 138 136 92 57 61 45 54 61 64 54 23 336 304 301 328 325 350 353 358 355 344 326 308 299
115 63 330 262 222 175 197 107 113 114 63 118 138 163 175 190 171 166 168 162 158 158 154 149 154 234 230 196 342 106 55 67 63 55 36 17 352 315 271 289 306 311 333 339 337 337 330 329 335
103 118 273 229 193 157 178 104 45 54 102 66 13 136 155 171 162 156 152 162 177 180 159 146 91 79 177 223 302 258 216 166 106 37 54 30 360 355 347 350 345 287 324 323 320 317 311 311 337
86 140 233 204 211 154 161 134 139 109 92 55 88 86 132 156 149 136 142 150 149 150 144 125 106 83 102 50 29 303 230 243 199 64 10 327 8 29 357 343 359 334 343 353 5 27 14 350 341
251 204 76 302 165 146 159 122 86 120 69 170 143 113 110 131 140 145 147 141 151 141 125 115 98 103 107 77 44 66 187 245 219 218 204 309 345 291 318 330 345 334 329 335 331 332 344 352 336
111 283 274 304 121 130 92 95 72 357 149 150 116 124 121 124 140 151 150 138 127 133 127 121 106 102 76 29 22 46 359 6 250 240 216 262 321 313 303 301 313 344 343 326 331 330 319 333 327
165 324 21 275 27 90 93 76 105 103 123 120 116 116 123 127 136 149 153 155 147 138 139 137 136 69 51 39 292 294 287 320 294 293 249 283 312 343 334 299 314 348 328 329 335 319 323 320 320
144 151 253 66 61 154 120 142 97 167 138 125 131 147 142 150 161 167 178 187 188 175 166 171 204 255 300 324 320 272 263 271 309 274 272 257 293 327 349 337 333 349 338 340 335 321 327 330 328
102 172 251 103 151 128 119 81 139 153 148 137 142 151 157 176 183 197 202 205 206 207 203 203 220 234 263 283 303 277 279 286 304 262 283 251 272 305 321 315 316 318 319 321 328 338 320 330 331
100 62 350 263 138 143 156 206 160 159 146 156 161 164 184 192 206 218 220 217 215 214 212 218 228 252 252 255 276 277 285 286 285 265 262 260 256 287 279 270 279 309 302 314 312 327 318 328 328
5 183 223 308 139 134 150 107 181 165 162 174 176 192 189 198 228 232 225 225 225 224 225 235 236 261 247 245 262 275 285 283 298 257 257 259 264 256 269 273 271 296 303 304 298 315 312 322 323
180 240 238 217 238 162 123 180 160 165 197 189 190 200 209 194 225 227 226 232 236 233 235 246 249 256 249 244 253 268 279 270 297 302 263 240 232 249 271 266 282 283 288 301 313 315 317 318 321
171 201 200 248 232 84 180 135 173 186 190 201 200 206 217 216 229 223 235 235 240 238 245 248 252 248 249 249 257 268 264 259 287 291 275 244 250 267 273 264 267 279 267 286 301 309 318 315 321
181 173 252 311 228 86 128 139 128 196 214 169 198 213 218 232 228 210 226 230 237 241 243 246 252 252 264 251 254 256 263 269 270 284 268 250 265 282 280 267 268 266 271 273 284 300 299 306 313
66 195 242 242 94 98 126 161 192 236 266 278 266 221 213 222 225 225 200 224 238 243 252 258 250 252 268 257 257 255 262 272 277 292 277 257 268 268 267 270 268 266 265 274 281 280 290 294 299
146 236 65 354 44 229 194 201 217 275 299 270 228 202 213 213 164 176 200 224 237 246 244 247 253 260 253 260 255 257 266 273 278 291 297 282 278 267 270 276 275 265 267 276 272 280 285 276 277
206 211 134 239 336 90 69 89 250 160 245 251 138 104 130 148 149 160 191 201 200 194 224 247 257 258 264 266 268 266 269 282 286 288 287 291 276 286 287 279 267 263 269 278 270 272 277 279 276
147 9 26 16 71 18 239 130 233 191 198 159 105 113 137 131 135 75 66 159 172 188 208 248 228 271 276 279 286 274 275 289 289 287 272 265 287 289 278 273 264 268 270 275 272 274 280 274 277
68 46 346 353 1 244 136 38 245 196 165 168 153 158 116 116 117 132 153 165 174 187 187 164 176 193 219 266 279 284 287 297 297 293 288 268 266 276 276 273 268 263 266 276 270 267 276 271 278
283 140 156 228 236 280 18 198 274 181 189 161 141 162 151 152 171 174 161 157 152 155 165 172 181 194 213 230 255 274 295 311 310 309 289 275 272 273 263 253 254 260 267 273 267 263 273 274 289
297 285 183 146 328 93 175 12 357 231 241 144 148 170 160 178 157 151 134 140 152 159 151 148 148 146 104 122 269 299 303 315 315 321 306 293 271 268 266 263 250 254 257 268 272 261 266 278 286
180 188 357 13 273 270 207 212 230 195 221 158 158 155 150 134 124 136 143 162 151 155 155 158 159 147 140 109 201 295 310 318 314 313 318 302 284 277 271 261 255 256 260 270 269 256 264 278 285
348 24 58 116 129 162 227 253 231 185 167 154 154 173 161 154 166 179 166 156 154 162 166 157 149 147 153 101 35 325 289 318 317 322 312 318 302 280 264 249 259 260 261 257 258 258 263 269 281
217 153 115 119 286 208 155 258 348 133 145 155 170 174 170 157 182 197 174 188 198 177 158 156 158 150 64 35 344 335 307 320 326 328 326 320 308 285 264 253 255 258 255 263 258 264 252 257 275